Voltar ao catálogo

FALCON 9 R/B

AtivoHEO
NORAD 58996·ROCKET BODY·🇺🇸 United States

Lançado Feb 20, 2024 de Cape Canaveral Space Force Station

Loading…

Próximas Passagens (próximas 24 horas)

TLE

AtualizadoSource: Space-Track

Época: Sep 14, 2026, 17:31 UTC

1 58996U 24035B   26257.73026213  .00000024  00000-0  40726-3 0  9995
2 58996  20.8747  73.6373 7993981 198.5281  92.0928  1.40603779 13074

Acompanhe FALCON 9 R/B em tempo real com AllMySat

Download on the App Store